[[{"header":{"parameterUnit":"m.s-1","parameterCategory":1,"la1":30.2991,"la2":30.254,"lo1":-89.0895,"lo2":-89.0444,"dy":0.0017,"dx":0.0017,"nx":28,"ny":28,"refTime":"2024-10-15T03:00:00:Z","depth":0,"parameterNumber":2,"parameterNumberName":"U-component_of_WINDS"},"data":[0,0,0,0,0,0,0,0,0,0,0,0,0,0,0,0,0,0,0,0,0,0,0,0,0,0,0,0,0,0,0,0,0,0,0,0,0,0,0,0,0,0,0,0,0,0,0,0,0,0,0,0,0,0,0,0,0,0,-4.0426,-4.0426,0,-4.0455,-4.0456,-4.0456,-4.0287,-4.0282,-4.0277,-4.0272,-4.0304,-4.0309,-4.0314,0,0,0,0,0,0,0,0,0,0,0,0,0,-4.0222,-4.0227,-4.0426,-4.0426,-4.0427,-4.0455,-4.0456,-4.0456,-4.0287,-4.0281,-4.0276,-4.027,-4.0302,-4.0308,-4.0315,0,0,0,0,0,0,0,0,0,0,0,0,0,-4.0288,-4.0229,-4.0426,-4.0346,-4.0339,-4.0455,-4.0456,-4.0456,-4.0289,-4.0281,-4.0274,-4.0267,-4.03,-4.0308,-4.0315,-4.051,0,0,-4.034,-4.0343,0,0,0,0,0,0,0,0,-4.0284,-4.0295,-4.0357,-4.0352,-4.0344,-4.036,-4.0395,-4.0475,-4.029,-4.0308,-4.0272,-4.0264,-4.0328,-4.0333,-4.0355,-4.0512,-4.0513,-4.0341,-4.0346,-4.0349,-4.0351,0,0,0,0,0,0,0,-4.028,-4.0293,-4.0437,-4.0358,-4.035,-4.0308,-4.0309,-4.041,-4.0359,-4.0306,-4.0293,-4.0299,-4.0323,-4.0348,-4.0354,-4.0514,-4.034,-4.0348,-4.0353,-4.0356,-4.083,-4.0837,0,0,0,0,0,0,-4.0286,-4.029,-4.0437,-4.0438,-4.0295,-4.0318,-4.0319,-4.0362,-4.0357,-4.0349,-4.0305,-4.0291,-4.0338,-4.0345,-4.0355,-4.0582,-4.0349,-4.0356,-4.0361,-4.0822,-4.0832,-4.084,0,0,0,0,0,0,-4.0282,-4.0301,-4.0435,-4.0361,-4.0375,-4.0329,-4.0379,-4.0367,-4.0391,-4.0357,-4.0347,-4.034,-4.0332,-4.0344,-4.0473,-4.0581,-4.036,-4.0367,-4.0813,-4.0825,-4.0836,-4.1039,0,0,0,0,0,0,-4.0277,-4.03,-4.0374,-4.0364,-4.038,-4.0554,-4.0385,-4.0372,-4.0405,-4.0387,-4.0386,-4.0379,-4.0327,-4.0462,-4.0481,-4.0588,-4.0374,-4.0803,-4.0819,-4.0832,-4.1023,-4.1056,-4.1085,0,0,0,0,0,-4.027,-4.0431,-4.0379,-4.0398,-4.0471,-4.056,-4.0569,-4.0506,-4.0414,-4.0488,-4.0466,-4.0379,-4.0566,-4.0476,-4.0496,-4.0608,-4.0796,-4.0814,-4.0831,-4.1008,-4.105,-4.1084,0,0,0,0,0,0,-4.0456,-4.0428,-4.037,-4.0532,-4.055,-4.0531,-4.0623,-4.0551,-4.0596,-4.0577,-4.0496,-4.0498,-4.064,-4.0636,-4.0537,-4.0795,-4.0665,-4.0687,-4.0793,-4.0832,-4.0862,-4.0861,-4.038,0,0,0,0,0,-4.0516,-4.059,-4.0562,-4.0707,-4.0719,-4.067,-4.0706,-4.0655,-4.0671,-4.0677,-4.0664,-4.0683,-4.0744,-4.0788,-4.0843,-4.102,-4.1017,-4.1107,-4.1138,-4.1164,-4.1185,-4.1277,-4.1316,-4.0898,-4.0898,-4.0897,0,0,-4.064,-4.0634,-4.0686,-4.0744,-4.0752,-4.0831,-4.0677,-4.0767,-4.0825,-4.0691,-4.0812,-4.0803,-4.0818,-4.0972,-4.1039,-4.0973,-4.1299,-4.1186,-4.1207,-4.1214,-4.1299,-4.1339,-4.1374,-4.091,-4.0907,-4.0906,0,0,-4.0907,-4.091,-4.1031,-4.1042,-4.1055,-4.102,-4.105,-4.1042,-4.1031,-4.115,-4.1051,-4.1118,-4.1227,-4.1241,-4.1263,-4.1533,-4.1455,-4.1553,-4.1718,-4.1809,-4.1842,-4.187,-4.1967,-4.2002,-4.1574,-4.1574,-4.1575,0,-4.106,-4.1175,-4.1103,-4.1199,-4.1227,-4.1108,-4.123,-4.1244,-4.1275,-4.1297,-4.1222,-4.1356,-4.1357,-4.1512,-4.1578,-4.16,-4.163,-4.1554,-4.1843,-4.1871,-4.1897,-4.1988,-4.2024,-4.1586,-4.1585,-4.1584,-4.1582,0,-4.1362,-4.1444,-4.154,-4.1572,-4.161,-4.172,-4.1663,-4.1711,-4.1656,-4.163,-4.1753,-4.175,-4.1803,-4.1835,-4.1783,-4.1983,-4.1942,-4.1856,-4.1724,-4.195,-4.2034,-4.2068,-4.1603,-4.1599,-4.1595,-4.1592,0,0,-4.175,-4.1738,-4.1775,-4.1788,-4.1792,-4.1853,-4.1956,-4.2007,-4.2049,-4.2074,-4.2158,-4.2252,-4.2173,-4.2197,-4.2145,-4.2226,-4.2439,-4.213,-4.2129,-4.2188,-4.2659,-4.2724,-4.2765,-4.2387,-4.2393,-4.2398,-4.2657,0,-4.201,-4.2186,-4.2122,-4.2302,-4.2375,-4.2262,-4.2351,-4.2364,-4.2342,-4.24,-4.2375,-4.2443,-4.2333,-4.2347,-4.2421,-4.2398,-4.2533,-4.2378,-4.2465,-4.2469,-4.2466,-4.2809,-4.2878,-4.3123,-4.269,-4.2695,-4.2699,0,-4.2339,-4.2376,-4.2563,-4.2553,-4.2582,-4.2663,-4.2704,-4.2761,-4.2772,-4.275,-4.2777,-4.2708,-4.2807,-4.2674,-4.281,-4.2706,-4.2737,-4.2731,-4.2739,-4.2746,-4.2599,-4.2825,-4.32,-4.3237,-4.275,-4.2746,-4.2743,0,-4.2603,-4.2699,-4.2823,-4.2837,-4.2829,-4.2889,-4.2889,-4.2892,-4.2926,-4.2961,-4.2982,-4.3029,-4.3055,-4.3093,-4.3037,-4.2946,-4.3181,-4.3044,-4.3166,-4.3168,-4.3222,-4.3219,-4.3607,-4.3241,-4.3241,-4.324,-4.3239,0,-4.2902,-4.302,-4.2941,-4.3018,-4.3147,-4.3072,-4.3202,-4.3189,-4.3193,-4.3264,-4.3169,-4.3238,-4.316,-4.3222,-4.3179,-4.3298,-4.331,-4.3295,-4.3282,-4.3304,-4.3306,-4.3324,-4.3306,-4.325,-4.3247,-4.3246,-4.3244,0,-4.3219,-4.3171,-4.3298,-4.3279,-4.3277,-4.3373,-4.3357,-4.3427,-4.3396,-4.3488,-4.3505,-4.3458,-4.3526,-4.3473,-4.354,-4.3511,-4.3668,-4.3631,-4.3665,-4.3655,-4.378,-4.3769,-4.4193,-4.4245,-4.3846,-4.385,-4.3853,0,-4.3413,-4.3501,-4.3492,-4.3532,-4.3538,-4.3605,-4.3638,-4.3568,-4.3607,-4.3625,-4.3693,-4.3751,-4.3795,-4.3908,-4.388,-4.393,-4.3893,-4.4039,-4.39,-4.3919,-4.3896,-4.3892,-4.39,-4.4067,-4.4072,-4.4076,-4.4079,0,-4.3763,-4.3734,-4.3786,-4.383,-4.3873,-4.3904,-4.3928,-4.3967,-4.3894,-4.3943,-4.401,-4.4044,-4.4111,-4.4171,-4.4211,-4.4209,-4.4133,-4.4122,-4.4153,-4.4177,-4.4193,-4.4186,-4.3742,-4.4113,-4.411,-4.4107,-4.4105,-4.4104,-4.4024,-4.4097,-4.4102,-4.4162,-4.4172,-4.4196,-4.426,-4.4238,-4.4292,-4.4341,-4.4296,-4.4377,-4.4384,-4.4429,-4.4438,-4.45,-4.444,-4.4485,-4.4496,-4.4508,-4.4526,-4.4182,-4.4507,-4.4505,-4.4504,-4.4504,-4.4503,0,-4.4369,-4.4366,-4.4423,-4.4458,-4.4506,-4.4428,-4.445,-4.4495,-4.4567,-4.458,-4.4625,-4.4701,-4.4758,-4.4734,-4.4784,-4.4838,-4.4805,-4.4854,-4.485,-4.485,-4.4577,-4.4545,-4.488,-4.488,-4.488,-4.488,-4.488,-4.488,-4.4555,-4.4673,-4.4645,-4.4768,-4.4763,-4.4841,-4.486,-4.4881,-4.4891,-4.4981,-4.5028,-4.5011,-4.5009,-4.5057,-4.5106,-4.5097,-4.512,-4.5183,-4.5162,-4.4907,-4.487,-4.4834,-4.4804,-4.5188,-4.5189,-4.5429,-4.5432,-4.5433]},{"header":{"parameterUnit":"m.s-1","parameterCategory":1,"la1":30.2991,"la2":30.254,"lo1":-89.0895,"lo2":-89.0444,"dy":0.0017,"dx":0.0017,"nx":28,"ny":28,"refTime":"2024-10-15T03:00:00:Z","depth":0,"parameterNumber":3,"parameterNumberName":"V-component_of_WINDS"},"data":[0,0,0,0,0,0,0,0,0,0,0,0,0,0,0,0,0,0,0,0,0,0,0,0,0,0,0,0,0,0,0,0,0,0,0,0,0,0,0,0,0,0,0,0,0,0,0,0,0,0,0,0,0,0,0,0,0,0,-6.4232,-6.4233,0,-6.4303,-6.4304,-6.4305,-6.4186,-6.4182,-6.4178,-6.4174,-6.4242,-6.4247,-6.4253,0,0,0,0,0,0,0,0,0,0,0,0,0,-6.3988,-6.3993,-6.4232,-6.4233,-6.4234,-6.4303,-6.4304,-6.4305,-6.4187,-6.4182,-6.4177,-6.4173,-6.424,-6.4247,-6.4253,0,0,0,0,0,0,0,0,0,0,0,0,0,-6.408,-6.3994,-6.4232,-6.4184,-6.418,-6.4303,-6.4304,-6.4305,-6.4188,-6.4182,-6.4176,-6.417,-6.4238,-6.4246,-6.4254,-6.4427,0,0,-6.428,-6.4283,0,0,0,0,0,0,0,0,-6.4075,-6.4089,-6.419,-6.4187,-6.4183,-6.423,-6.4242,-6.4346,-6.4189,-6.4185,-6.4174,-6.4167,-6.4243,-6.425,-6.4276,-6.443,-6.4433,-6.428,-6.4285,-6.4289,-6.4291,0,0,0,0,0,0,0,-6.4068,-6.4085,-6.426,-6.4191,-6.4188,-6.4156,-6.4162,-6.4262,-6.4246,-6.4185,-6.4176,-6.4187,-6.4239,-6.4269,-6.4277,-6.4434,-6.428,-6.4288,-6.4293,-6.4296,-6.4728,-6.4734,0,0,0,0,0,0,-6.4069,-6.4081,-6.4258,-6.4262,-6.4113,-6.4165,-6.4172,-6.4221,-6.4245,-6.4243,-6.4192,-6.4181,-6.4257,-6.4268,-6.4279,-6.448,-6.4289,-6.4297,-6.4302,-6.4722,-6.473,-6.4737,0,0,0,0,0,0,-6.4064,-6.4086,-6.4255,-6.4169,-6.4188,-6.4176,-6.4231,-6.4226,-6.4255,-6.425,-6.4246,-6.4225,-6.4253,-6.4267,-6.439,-6.4481,-6.4301,-6.4308,-6.4714,-6.4724,-6.4733,-6.4886,0,0,0,0,0,0,-6.4058,-6.4085,-6.4152,-6.4172,-6.4194,-6.4368,-6.4237,-6.4231,-6.427,-6.4256,-6.428,-6.4279,-6.4249,-6.4379,-6.4399,-6.4489,-6.4315,-6.4706,-6.4719,-6.473,-6.4872,-6.4899,-6.4923,0,0,0,0,0,-6.4049,-6.4192,-6.4156,-6.4178,-6.4278,-6.4373,-6.4385,-6.4351,-6.4278,-6.4344,-6.4341,-6.4278,-6.4468,-6.4392,-6.4414,-6.4508,-6.47,-6.4715,-6.4729,-6.4861,-6.4894,-6.4922,0,0,0,0,0,0,-6.4181,-6.4193,-6.4154,-6.4307,-6.4341,-6.4353,-6.4435,-6.4387,-6.444,-6.4425,-6.4377,-6.4384,-6.4516,-6.4524,-6.444,-6.4675,-6.4572,-6.4591,-6.4665,-6.4696,-6.472,-6.4715,-6.4322,0,0,0,0,0,-6.4229,-6.4308,-6.4313,-6.4447,-6.4466,-6.4449,-6.4489,-6.4459,-6.4491,-6.4503,-6.4509,-6.4541,-6.4607,-6.4652,-6.4713,-6.4873,-6.4875,-6.4949,-6.4974,-6.4994,-6.5011,-6.5094,-6.5126,-6.4785,-6.4785,-6.4784,0,0,-6.4326,-6.4343,-6.4395,-6.4474,-6.4496,-6.4577,-6.4461,-6.4551,-6.461,-6.4516,-6.4633,-6.4639,-6.467,-6.4812,-6.4875,-6.4823,-6.5106,-6.5013,-6.5029,-6.5035,-6.5112,-6.5144,-6.5173,-6.4795,-6.4793,-6.4791,0,0,-6.4545,-6.4567,-6.468,-6.4705,-6.474,-6.4727,-6.4755,-6.4775,-6.4775,-6.4892,-6.4823,-6.489,-6.5007,-6.5031,-6.5059,-6.5286,-6.523,-6.5307,-6.5438,-6.5519,-6.5546,-6.5569,-6.5648,-6.5677,-6.5325,-6.5325,-6.5325,0,-6.4662,-6.4783,-6.4744,-6.484,-6.4875,-6.4796,-6.4909,-6.4934,-6.4987,-6.5012,-6.4954,-6.5097,-6.5113,-6.5258,-6.5313,-6.5339,-6.5367,-6.5304,-6.5545,-6.5569,-6.559,-6.5664,-6.5695,-6.5334,-6.5333,-6.5332,-6.5331,0,-6.4923,-6.5008,-6.5094,-6.5149,-6.5194,-6.5298,-6.5273,-6.5323,-6.5289,-6.5282,-6.54,-6.5416,-6.5478,-6.551,-6.5478,-6.5651,-6.5617,-6.5553,-6.5448,-6.5632,-6.5701,-6.573,-6.5347,-6.5344,-6.5341,-6.5339,0,0,-6.5228,-6.5259,-6.5291,-6.5314,-6.5347,-6.541,-6.5509,-6.5571,-6.5613,-6.5652,-6.5732,-6.5832,-6.5772,-6.5804,-6.5773,-6.5845,-6.6021,-6.5771,-6.5771,-6.5815,-6.6209,-6.6256,-6.629,-6.5984,-6.5989,-6.5993,-6.6206,0,-6.5444,-6.5616,-6.5584,-6.5751,-6.5827,-6.5752,-6.5837,-6.5865,-6.5861,-6.5922,-6.5916,-6.5987,-6.5904,-6.5922,-6.599,-6.5985,-6.6099,-6.5969,-6.6055,-6.6059,-6.6048,-6.6327,-6.6377,-6.6578,-6.6233,-6.6238,-6.6241,0,-6.572,-6.577,-6.5945,-6.5964,-6.5994,-6.6072,-6.6125,-6.6186,-6.6215,-6.6206,-6.6241,-6.6197,-6.6292,-6.6187,-6.6316,-6.6229,-6.6262,-6.6265,-6.6272,-6.6277,-6.616,-6.6338,-6.6641,-6.667,-6.6284,-6.628,-6.6277,0,-6.5922,-6.6033,-6.6151,-6.6173,-6.6199,-6.6255,-6.6267,-6.6291,-6.6329,-6.6375,-6.6399,-6.6455,-6.6485,-6.6529,-6.6499,-6.6426,-6.6633,-6.6526,-6.6626,-6.6627,-6.6672,-6.6669,-6.6983,-6.6696,-6.6696,-6.6695,-6.6695,0,-6.6166,-6.6276,-6.6242,-6.6315,-6.6435,-6.6395,-6.6514,-6.6517,-6.6539,-6.6609,-6.6547,-6.6614,-6.6571,-6.6634,-6.6612,-6.6721,-6.6735,-6.6729,-6.6721,-6.6734,-6.6735,-6.6754,-6.6738,-6.6703,-6.6702,-6.67,-6.6699,0,-6.6412,-6.6395,-6.6518,-6.6532,-6.6538,-6.6625,-6.6635,-6.6702,-6.6692,-6.6782,-6.68,-6.6785,-6.6855,-6.683,-6.6905,-6.689,-6.7029,-6.7004,-6.702,-6.7013,-6.7113,-6.7104,-6.7449,-6.7491,-6.718,-6.7183,-6.7185,0,-6.6568,-6.6651,-6.6674,-6.6717,-6.6735,-6.6805,-6.6844,-6.6808,-6.6851,-6.6889,-6.6951,-6.7016,-6.7066,-6.7182,-6.7176,-6.7232,-6.7207,-6.7324,-6.7215,-6.7224,-6.7206,-6.7201,-6.7208,-6.7345,-6.7349,-6.7352,-6.7354,0,-6.6847,-6.6834,-6.6894,-6.6951,-6.7,-6.7042,-6.7079,-6.7118,-6.7083,-6.7134,-6.7206,-6.7245,-6.7322,-6.7386,-6.7437,-6.7447,-6.7395,-6.7389,-6.7415,-6.7427,-6.7432,-6.7429,-6.7077,-6.7381,-6.7378,-6.7376,-6.7375,-6.7374,-6.7051,-6.712,-6.7147,-6.7215,-6.7239,-6.7275,-6.7337,-6.7336,-6.7396,-6.7456,-6.743,-6.7513,-6.7537,-6.76,-6.7617,-6.7679,-6.7634,-6.7672,-6.7681,-6.7691,-6.7703,-6.7424,-6.7689,-6.7688,-6.7687,-6.7686,-6.7686,0,-6.7325,-6.7338,-6.7402,-6.7455,-6.7508,-6.7456,-6.7494,-6.7541,-6.7615,-6.7643,-6.7693,-6.7775,-6.7837,-6.7836,-6.7893,-6.7943,-6.792,-6.7959,-6.7954,-6.7956,-6.7741,-6.7712,-6.7976,-6.7976,-6.7976,-6.7976,-6.7976,-6.7976,-6.7474,-6.7587,-6.7577,-6.7701,-6.7712,-6.7794,-6.7819,-6.7851,-6.7873,-6.7967,-6.8019,-6.8018,-6.8034,-6.8091,-6.8145,-6.8142,-6.8165,-6.8213,-6.8202,-6.8001,-6.7972,-6.7944,-6.7917,-6.8219,-6.8219,-6.8411,-6.8413,-6.8414]}]]